Location: Goudex
(43.3760°N, 0.9543°E)
Time: 11:19:26
(UTC+00:00)

COSMO-SKYMED 1 - Pass Details

Date: 20 November 2019
Orbit: 621 x 623 km, 97.9° (Epoch: 12 December)

Event Time Altitude Azimuth Distance (km) Brightness Sun altitude
Rises 06:05:34 0° 200° (SSW) 2,890 6.0 -9.2°
Reaches altitude 10° 06:08:11 10° 216° (SW) 1,989 5.0 -8.7°
Maximum altitude 06:11:30 21° 267° (W) 1,398 3.8 -8.2°
Drops below altitude 10° 06:14:50 10° 317° (NW) 2,001 4.6 -7.6°
Enters shadow 06:17:07 - 331° (NNW) 2,775 5.4 -7.2°
